GW6267 Weather Reports


Display with metric or nautical units.
time (UTC)temp
F
wind
direction
speed
MPH
gust
MPH
rain 1hr
in
rain 24hr
in
rain mn
in
humidity
%
barometer
mb
20260510033004 72 40 8.0 17.0 0.00 0.00 0.00 40 1025.5
20260510032004 72 34 6.0 14.0 0.00 0.00 0.00 41 1025.5
20260510031004 70 63 7.0 14.0 0.00 0.00 0.00 42 1025.7
20260510030025 70 65 7.0 14.0 0.00 0.00 0.00 44 1025.8
20260510025025 70 42 7.0 18.0 0.00 0.00 0.00 44 1025.9
20260510024004 69 44 8.0 16.0 0.00 0.00 0.00 45 1026.0
20260510023004 68 54 6.0 11.0 0.00 0.00 0.00 47 1026.0
20260510022004 68 50 8.0 15.0 0.00 0.00 0.00 47 1026.3
20260510021003 67 44 9.0 16.0 0.00 0.00 0.00 48 1026.4
20260510020004 67 35 9.0 15.0 0.00 0.00 0.00 48 1026.5
20260510015004 66 45 9.0 17.0 0.00 0.00 0.00 49 1026.6
20260510014003 65 47 7.0 15.0 0.00 0.00 0.00 50 1026.7
20260510013004 64 49 7.0 13.0 0.00 0.00 0.00 52 1026.7
20260510012003 63 65 6.0 13.0 0.00 0.00 0.00 54 1026.7
20260510011004 62 61 6.0 14.0 0.00 0.00 0.00 55 1026.7
20260510010004 61 65 6.0 12.0 0.00 0.00 0.00 57 1026.8
20260510005003 61 63 5.0 10.0 0.00 0.00 0.00 58 1026.6
20260510004025 60 67 6.0 11.0 0.00 0.00 0.00 60 1026.6
20260510003004 59 67 5.0 14.0 0.00 0.00 0.00 60 1026.6
20260510002003 58 73 6.0 11.0 0.00 0.00 0.00 61 1026.5
20260510001025 58 66 5.0 10.0 0.00 0.00 0.00 62 1026.4
20260510000004 57 66 5.0 9.0 0.00 0.00 0.00 63 1026.4
20260509235003 56 60 4.0 9.0 0.00 0.00 0.00 64 1026.5
20260509234003 55 72 3.0 6.0 0.00 0.00 0.00 65 1026.6
20260509233003 54 57 2.0 5.0 0.00 0.00 0.00 67 1026.6
20260509232003 54 56 2.0 6.0 0.00 0.00 0.00 68 1026.5
20260509231003 53 60 2.0 6.0 0.00 0.00 0.00 68 1026.4
20260509230004 53 72 2.0 5.0 0.00 0.00 0.00 68 1026.2
20260509225003 53 68 1.0 4.0 0.00 0.00 0.00 68 1026.2
20260509224004 53 76 2.0 5.0 0.00 0.00 0.00 68 1026.2
20260509223024 53 79 2.0 6.0 0.00 0.00 0.00 67 1026.2
20260509222024 53 80 1.0 4.0 0.00 0.00 0.00 67 1026.1
20260509221003 53 80 2.0 5.0 0.00 0.00 0.00 67 1026.1
20260509220003 54 81 2.0 5.0 0.00 0.00 0.00 66 1025.9
20260509215003 54 80 2.0 6.0 0.00 0.00 0.00 65 1025.9
20260509214024 54 79 3.0 7.0 0.00 0.00 0.00 65 1025.8
20260509213003 54 79 4.0 9.0 0.00 0.00 0.00 64 1025.7
20260509212003 54 82 5.0 10.0 0.00 0.00 0.00 64 1025.5
20260509211003 55 87 5.0 10.0 0.00 0.00 0.00 63 1025.5
20260509210003 54 83 4.0 9.0 0.00 0.00 0.00 64 1025.4
20260509205003 54 79 3.0 5.0 0.00 0.00 0.00 64 1025.4
20260509204003 54 81 3.0 7.0 0.00 0.00 0.00 64 1025.4
20260509203003 54 82 3.0 7.0 0.00 0.00 0.00 63 1025.1
20260509202003 54 82 4.0 7.0 0.00 0.00 0.00 63 1025.0
20260509201003 54 88 4.0 8.0 0.00 0.00 0.00 63 1024.9
20260509200003 54 86 4.0 8.0 0.00 0.00 0.00 62 1025.0
20260509195003 55 86 4.0 8.0 0.00 0.00 0.00 62 1024.9
20260509194004 55 88 4.0 8.0 0.00 0.00 0.00 62 1024.9
20260509193004 55 84 4.0 8.0 0.00 0.00 0.00 61 1025.1
20260509192004 55 81 4.0 7.0 0.00 0.00 0.00 60 1025.0
20260509191004 56 85 5.0 10.0 0.00 0.00 0.00 60 1024.9
20260509190005 55 82 5.0 10.0 0.00 0.00 0.00 60 1024.9
20260509185025 55 85 5.0 9.0 0.00 0.00 0.00 61 1024.9
20260509184004 55 85 4.0 7.0 0.00 0.00 0.00 61 1025.1
20260509183004 54 88 3.0 7.0 0.00 0.00 0.00 60 1025.0
20260509182025 54 88 4.0 6.0 0.00 0.00 0.00 60 1024.9
20260509181004 55 84 4.0 8.0 0.00 0.00 0.00 59 1024.9
20260509180004 55 87 3.0 6.0 0.00 0.00 0.00 60 1025.0
20260509175004 55 82 3.0 7.0 0.00 0.00 0.00 60 1025.0
20260509174004 54 84 2.0 4.0 0.00 0.00 0.00 60 1025.1
20260509173004 54 88 2.0 4.0 0.00 0.00 0.00 60 1025.2
20260509172004 55 87 2.0 4.0 0.00 0.00 0.00 60 1025.1
20260509171004 55 88 2.0 4.0 0.00 0.00 0.00 59 1025.0
20260509170004 55 88 2.0 5.0 0.00 0.00 0.00 58 1025.1
20260509165004 56 84 2.0 4.0 0.00 0.00 0.00 57 1025.2
20260509164004 56 89 2.0 5.0 0.00 0.00 0.00 56 1025.2
20260509163004 56 90 3.0 5.0 0.00 0.00 0.00 56 1025.2
20260509162025 57 91 3.0 5.0 0.00 0.00 0.00 55 1025.2
20260509161004 57 86 2.0 4.0 0.00 0.00 0.00 55 1025.3
20260509160025 57 96 2.0 5.0 0.00 0.00 0.00 55 1025.3
20260509155004 57 99 2.0 5.0 0.00 0.00 0.00 54 1025.4
20260509154004 57 89 2.0 5.0 0.00 0.00 0.00 56 1025.5
20260509153004 58 85 2.0 5.0 0.00 0.00 0.00 54 1025.4
20260509152025 58 92 2.0 4.0 0.00 0.00 0.00 53 1025.5
20260509151004 58 87 2.0 5.0 0.00 0.00 0.00 55 1025.6
20260509150004 58 93 1.0 4.0 0.00 0.00 0.00 54 1025.7
20260509145004 58 101 0.0 2.0 0.00 0.00 0.00 54 1025.6
20260509144025 58 99 0.0 2.0 0.00 0.00 0.00 53 1025.7
20260509143004 58 104 1.0 2.0 0.00 0.00 0.00 51 1025.9
20260509142004 58 83 1.0 2.0 0.00 0.00 0.00 52 1025.9
20260509141004 59 112 1.0 2.0 0.00 0.00 0.00 50 1025.8
20260509140005 59 85 2.0 3.0 0.00 0.00 0.00 50 1025.7
20260509135025 60 85 2.0 4.0 0.00 0.00 0.00 49 1025.6
20260509134004 60 82 3.0 4.0 0.00 0.00 0.00 48 1025.6
20260509133004 60 82 3.0 5.0 0.00 0.00 0.00 47 1025.5
20260509132004 61 85 2.0 6.0 0.00 0.00 0.00 46 1025.6
20260509131004 61 89 3.0 7.0 0.00 0.00 0.00 46 1025.5
20260509130004 61 94 3.0 8.0 0.00 0.00 0.00 46 1025.4
20260509125004 61 96 2.0 5.0 0.00 0.00 0.00 47 1025.4
20260509124004 61 96 2.0 6.0 0.00 0.00 0.00 46 1025.3
20260509123004 62 106 2.0 6.0 0.00 0.00 0.00 45 1025.3
20260509122004 62 115 2.0 4.0 0.00 0.00 0.00 45 1025.2
20260509121004 63 121 3.0 5.0 0.00 0.00 0.00 44 1025.2
20260509120004 63 124 4.0 7.0 0.00 0.00 0.00 43 1025.1
20260509115004 64 120 4.0 9.0 0.00 0.00 0.00 42 1025.1
20260509114004 64 119 4.0 9.0 0.00 0.00 0.00 42 1025.0
20260509113004 65 124 4.0 8.0 0.00 0.00 0.00 41 1024.9
20260509112004 65 123 3.0 8.0 0.00 0.00 0.00 40 1025.0
20260509111004 66 123 4.0 7.0 0.00 0.00 0.00 40 1024.9
20260509110004 66 126 3.0 7.0 0.00 0.00 0.00 39 1024.9
20260509105004 66 125 3.0 6.0 0.00 0.00 0.00 39 1024.9
20260509104004 67 127 3.0 7.0 0.00 0.00 0.00 39 1024.9
20260509103004 67 127 3.0 5.0 0.00 0.00 0.00 38 1024.8
20260509102004 68 127 3.0 7.0 0.00 0.00 0.00 38 1024.8
20260509101004 68 127 3.0 6.0 0.00 0.00 0.00 38 1024.8
20260509100005 69 126 2.0 5.0 0.00 0.00 0.00 38 1024.6
20260509095004 69 129 2.0 5.0 0.00 0.00 0.00 37 1024.6
20260509094004 70 130 3.0 6.0 0.00 0.00 0.00 36 1024.6
20260509093025 71 135 3.0 7.0 0.00 0.00 0.00 36 1024.6
20260509092004 72 134 2.0 4.0 0.00 0.00 0.00 34 1024.6
20260509091004 73 105 3.0 7.0 0.00 0.00 0.00 32 1024.5
20260509090004 73 119 2.0 6.0 0.00 0.00 0.00 31 1024.5
20260509085004 74 93 3.0 7.0 0.00 0.00 0.00 30 1024.5
20260509084004 74 83 4.0 9.0 0.00 0.00 0.00 30 1024.4
20260509083004 75 61 4.0 13.0 0.00 0.00 0.00 30 1024.4
20260509082004 75 56 4.0 9.0 0.00 0.00 0.00 30 1024.4
20260509081004 75 62 4.0 9.0 0.00 0.00 0.00 30 1024.4
20260509080004 75 96 4.0 7.0 0.00 0.00 0.00 30 1024.4
20260509075004 75 72 4.0 8.0 0.00 0.00 0.00 30 1024.4
20260509074004 75 92 5.0 12.0 0.00 0.00 0.00 30 1024.3
20260509073004 74 87 5.0 10.0 0.00 0.00 0.00 31 1024.2
20260509072025 74 116 4.0 9.0 0.00 0.00 0.00 33 1024.1
20260509071004 74 104 5.0 11.0 0.00 0.00 0.00 33 1024.0
20260509070004 75 80 5.0 11.0 0.00 0.00 0.00 33 1023.9
20260509065004 74 92 5.0 12.0 0.00 0.00 0.00 32 1023.8
20260509064025 74 108 5.0 12.0 0.00 0.00 0.00 33 1023.8
20260509063004 74 95 6.0 12.0 0.00 0.00 0.00 33 1023.8
20260509062004 74 112 5.0 12.0 0.00 0.00 0.00 35 1023.9
20260509061004 73 91 7.0 14.0 0.00 0.00 0.00 36 1024.0
20260509060004 73 111 6.0 13.0 0.00 0.00 0.00 35 1023.9
20260509055004 73 95 5.0 12.0 0.00 0.00 0.00 37 1024.0
20260509054025 73 104 5.0 12.0 0.00 0.00 0.00 37 1024.1
20260509053004 73 110 5.0 11.0 0.00 0.00 0.00 39 1024.3
20260509052004 72 103 6.0 14.0 0.00 0.00 0.00 39 1024.3
20260509051004 72 84 6.0 12.0 0.00 0.00 0.00 39 1024.3
20260509050004 72 111 6.0 13.0 0.00 0.00 0.00 40 1024.6
20260509045004 72 83 7.0 14.0 0.00 0.00 0.00 40 1024.8
20260509044004 72 79 7.0 13.0 0.00 0.00 0.00 39 1025.0
20260509043025 72 80 7.0 14.0 0.00 0.00 0.00 39 1025.3
20260509042004 72 65 7.0 15.0 0.00 0.00 0.00 39 1025.5
20260509041004 71 88 6.0 12.0 0.00 0.00 0.00 41 1025.7
20260509040004 70 75 7.0 14.0 0.00 0.00 0.00 42 1026.1
20260509035004 70 72 8.0 14.0 0.00 0.00 0.00 42 1026.3
20260509034004 69 79 9.0 19.0 0.00 0.00 0.00 42 1026.4